Terminal Aerodrome Forecast
Issued by NWS

Home | Current Version | Previous Version | Text Only | Print | Product List | Glossary On
Versions: 1 2 3 4 5 6 7 8 9 10 11 12 13 14 15 16 17 18
000
FTUS41 KGYX 231424 AAA
TAFLEB
TAF AMD
KLEB 231424Z 2314/2412 18004KT P6SM VCSH BKN120
     FM231700 20012G18KT P6SM VCSH BKN060
     FM240100 21008KT 4SM BR OVC012=

USA.gov is the U.S. government's official web portal to all federal, state and local government web resources and services.